Radiation Dose at Monitoring Post of Fukushima Daini Nuclear Power Station
Date,Time,MP-1(microSv/h),MP-2(microSv/h),MP-3(microSv/h),MP-4(microSv/h),MP-5(microSv/h),MP-6(microSv/h),MP-7(microSv/h),Wind Direction,Wind Velocity(m/s),Rain
2015/05/18,00:00,0.553,0.332,0.588,0.544,0.477,0.253,0.226,southwest,2.8,No
2015/05/18,00:10,0.550,0.332,0.583,0.547,0.477,0.253,0.226,south-southwest,2.2,No
2015/05/18,00:20,0.555,0.332,0.586,0.542,0.478,0.253,0.226,south-southwest,1.7,No
2015/05/18,00:30,0.550,0.332,0.584,0.546,0.477,0.253,0.225,-,CALM,No
2015/05/18,00:40,0.555,0.332,0.587,0.541,0.477,0.253,0.226,-,CALM,No
2015/05/18,00:50,0.550,0.330,0.584,0.546,0.479,0.253,0.226,south-southwest,3.5,No
2015/05/18,01:00,0.554,0.333,0.585,0.543,0.477,0.253,0.226,south-southwest,6.4,No
2015/05/18,01:10,0.549,0.331,0.584,0.546,0.479,0.254,0.226,south-southwest,6.3,No
2015/05/18,01:20,0.553,0.334,0.588,0.542,0.477,0.254,0.226,southwest,5.3,No
2015/05/18,01:30,0.549,0.330,0.582,0.546,0.479,0.253,0.227,south-southwest,5.1,No
2015/05/18,01:40,0.555,0.332,0.589,0.543,0.476,0.253,0.226,west-southwest,1.6,No
2015/05/18,01:50,0.550,0.331,0.583,0.546,0.480,0.252,0.227,west-northwest,1.0,No
2015/05/18,02:00,0.552,0.332,0.588,0.544,0.475,0.253,0.226,west-northwest,0.7,No
2015/05/18,02:10,0.551,0.333,0.585,0.544,0.482,0.253,0.227,-,CALM,No
2015/05/18,02:20,0.552,0.332,0.586,0.545,0.476,0.253,0.227,west,0.6,No
2015/05/18,02:30,0.552,0.332,0.588,0.544,0.481,0.252,0.227,northwest,1.5,No
2015/05/18,02:40,0.552,0.332,0.583,0.548,0.476,0.254,0.227,northwest,1.9,No
2015/05/18,02:50,0.554,0.331,0.589,0.543,0.480,0.254,0.228,north,1.8,No
2015/05/18,03:00,0.551,0.331,0.583,0.547,0.477,0.252,0.225,north-northeast,1.6,No
2015/05/18,03:10,0.554,0.330,0.592,0.545,0.477,0.253,0.227,north,1.7,No
2015/05/18,03:20,0.552,0.331,0.586,0.544,0.479,0.253,0.227,north,2.3,No
2015/05/18,03:30,0.553,0.333,0.586,0.545,0.475,0.253,0.226,north-northwest,1.7,No
2015/05/18,03:40,0.551,0.330,0.585,0.545,0.478,0.254,0.226,-,CALM,No
2015/05/18,03:50,0.553,0.333,0.583,0.546,0.477,0.252,0.227,south,1.2,No
2015/05/18,04:00,0.553,0.333,0.588,0.542,0.479,0.253,0.226,north-northeast,0.8,No
2015/05/18,04:10,0.551,0.331,0.583,0.548,0.478,0.253,0.227,north-northeast,1.7,No
2015/05/18,04:20,0.556,0.333,0.586,0.545,0.476,0.253,0.226,north,1.9,No
2015/05/18,04:30,0.552,0.331,0.585,0.542,0.480,0.254,0.226,north,1.7,No
2015/05/18,04:40,0.554,0.332,0.587,0.546,0.476,0.253,0.226,north,1.0,No
2015/05/18,04:50,0.552,0.333,0.585,0.543,0.479,0.253,0.227,-,CALM,No
2015/05/18,05:00,0.554,0.331,0.585,0.545,0.475,0.253,0.227,-,CALM,No
2015/05/18,05:10,0.554,0.332,0.587,0.545,0.479,0.255,0.226,southeast,1.3,No
2015/05/18,05:20,0.553,0.330,0.584,0.544,0.479,0.254,0.227,south-southeast,1.5,No
2015/05/18,05:30,0.555,0.332,0.588,0.546,0.477,0.254,0.227,south,1.6,No
2015/05/18,05:40,0.551,0.332,0.586,0.542,0.476,0.253,0.226,south-southeast,1.2,No
2015/05/18,05:50,0.555,0.330,0.587,0.547,0.477,0.252,0.227,south-southeast,0.7,No
2015/05/18,06:00,0.550,0.334,0.585,0.543,0.476,0.254,0.226,south-southeast,1.3,No
2015/05/18,06:10,0.555,0.331,0.587,0.545,0.475,0.253,0.227,south,1.6,No
2015/05/18,06:20,0.550,0.333,0.583,0.544,0.477,0.252,0.227,south,2.2,No
2015/05/18,06:30,0.556,0.329,0.585,0.545,0.478,0.252,0.227,south-southeast,1.7,No
2015/05/18,06:40,0.551,0.332,0.587,0.542,0.477,0.254,0.226,south,1.9,No
2015/05/18,06:50,0.555,0.331,0.585,0.545,0.479,0.254,0.228,south,1.0,No
2015/05/18,07:00,0.549,0.333,0.583,0.545,0.478,0.254,0.225,south-southeast,1.0,No
2015/05/18,07:10,0.555,0.332,0.584,0.545,0.478,0.254,0.228,south,0.9,No
2015/05/18,07:20,0.550,0.330,0.583,0.542,0.474,0.253,0.226,south-southeast,0.8,No
2015/05/18,07:30,0.554,0.333,0.588,0.547,0.480,0.253,0.227,southeast,0.5,No
2015/05/18,07:40,0.550,0.331,0.581,0.541,0.474,0.254,0.227,southeast,0.8,No
2015/05/18,07:50,0.554,0.332,0.589,0.544,0.479,0.254,0.226,south-southeast,0.9,No
2015/05/18,08:00,0.553,0.330,0.582,0.544,0.476,0.254,0.228,south,1.0,No
2015/05/18,08:10,0.549,0.332,0.585,0.541,0.475,0.252,0.226,south-southeast,1.3,No
2015/05/18,08:20,0.555,0.333,0.587,0.548,0.479,0.253,0.228,south-southeast,1.8,No
2015/05/18,08:30,0.549,0.330,0.581,0.541,0.475,0.252,0.228,south,2.2,No
2015/05/18,08:40,0.550,0.329,0.589,0.537,0.472,0.252,0.227,south-southeast,1.7,No
2015/05/18,08:50,0.554,0.335,0.584,0.547,0.481,0.253,0.225,southeast,2.6,No
2015/05/18,09:00,0.550,0.330,0.582,0.545,0.478,0.253,0.227,south-southeast,3.1,No
2015/05/18,09:10,0.545,0.328,0.588,0.539,0.475,0.252,0.228,south-southeast,2.8,No
2015/05/18,09:20,0.556,0.330,0.583,0.538,0.475,0.253,0.227,south,4.1,No
2015/05/18,09:30,0.553,0.334,0.589,0.547,0.481,0.254,0.226,south,5.1,No
2015/05/18,09:40,0.550,0.332,0.588,0.547,0.477,0.252,0.229,south,7.2,No
2015/05/18,09:50,0.547,0.331,0.582,0.541,0.475,0.254,0.228,south,8.5,No
2015/05/18,10:00,0.555,0.330,0.592,0.539,0.476,0.254,0.226,south,9.1,No
2015/05/18,10:10,0.554,0.333,0.585,0.536,0.479,0.253,0.227,south,9.8,No
2015/05/18,10:20,0.548,0.331,0.580,0.543,0.476,0.253,0.229,south,10.9,No
2015/05/18,10:30,0.547,0.330,0.577,0.547,0.474,0.253,0.227,south,11.0,No
2015/05/18,10:40,0.553,0.327,0.584,0.545,0.472,0.253,0.225,south,12.3,No
2015/05/18,10:50,0.557,0.329,0.587,0.542,0.479,0.252,0.227,south,12.3,No
2015/05/18,11:00,0.554,0.333,0.585,0.541,0.479,0.253,0.227,south,12.1,No
2015/05/18,11:10,0.549,0.331,0.583,0.539,0.477,0.254,0.225,south,11.9,No
2015/05/18,11:20,0.548,0.329,0.582,0.540,0.473,0.254,0.226,south,12.6,No
2015/05/18,11:30,0.546,0.329,0.581,0.546,0.472,0.253,0.226,south,13.2,No
2015/05/18,11:40,0.547,0.328,0.581,0.549,0.476,0.252,0.227,south,11.4,No
2015/05/18,11:50,0.551,0.333,0.582,0.545,0.481,0.253,0.224,south,13.3,No
2015/05/18,12:00,0.554,0.333,0.581,0.542,0.479,0.254,0.227,south,11.9,No
2015/05/18,12:10,0.552,0.333,0.580,0.540,0.474,0.254,0.227,south,13.1,No
2015/05/18,12:20,0.550,0.330,0.582,0.538,0.473,0.253,0.226,south,14.4,No
2015/05/18,12:30,0.546,0.329,0.588,0.550,0.472,0.253,0.226,south,12.9,No
2015/05/18,12:40,0.555,0.331,0.589,0.549,0.480,0.254,0.228,south,15.2,No
2015/05/18,12:50,0.555,0.334,0.586,0.546,0.482,0.253,0.227,south,16.0,No
2015/05/18,13:00,0.550,0.332,0.582,0.543,0.477,0.251,0.225,south,14.3,No
2015/05/18,13:10,0.550,0.330,0.581,0.545,0.474,0.254,0.226,south,16.2,No
2015/05/18,13:20,0.557,0.330,0.589,0.551,0.477,0.253,0.228,south,16.2,No
2015/05/18,13:30,0.557,0.332,0.590,0.547,0.480,0.252,0.226,south,14.9,No
2015/05/18,13:40,0.547,0.332,0.585,0.544,0.478,0.253,0.228,south,14.7,No
2015/05/18,13:50,0.557,0.331,0.586,0.547,0.477,0.254,0.227,south,15.2,No
2015/05/18,14:00,0.555,0.333,0.594,0.549,0.485,0.253,0.225,south,15.0,No
2015/05/18,14:10,0.549,0.333,0.587,0.544,0.477,0.254,0.228,south,14.2,No
2015/05/18,14:20,0.553,0.330,0.585,0.550,0.479,0.252,0.226,south,12.9,No
2015/05/18,14:30,0.556,0.335,0.593,0.546,0.482,0.253,0.228,south,13.8,No
2015/05/18,14:40,0.550,0.333,0.588,0.545,0.477,0.254,0.227,south,14.0,No
2015/05/18,14:50,0.555,0.331,0.582,0.549,0.474,0.253,0.226,south,14.7,No
2015/05/18,15:00,0.556,0.331,0.587,0.546,0.483,0.252,0.226,south,14.3,No
2015/05/18,15:10,0.551,0.333,0.590,0.545,0.480,0.254,0.225,south,14.3,No
2015/05/18,15:20,0.553,0.330,0.585,0.548,0.474,0.254,0.227,south,11.9,No
2015/05/18,15:30,0.555,0.332,0.587,0.544,0.480,0.253,0.226,south,12.8,No
2015/05/18,15:40,0.550,0.332,0.592,0.549,0.480,0.253,0.226,south,11.6,No
2015/05/18,15:50,0.554,0.329,0.585,0.549,0.475,0.252,0.228,south,11.5,No
2015/05/18,16:00,0.557,0.333,0.591,0.542,0.482,0.254,0.226,south,12.2,No
2015/05/18,16:10,0.549,0.332,0.591,0.552,0.479,0.252,0.228,south,12.0,No
2015/05/18,16:20,0.557,0.330,0.585,0.547,0.476,0.253,0.226,south,12.9,No
2015/05/18,16:30,0.553,0.334,0.593,0.545,0.481,0.254,0.227,south,13.0,No
2015/05/18,16:40,0.554,0.331,0.587,0.550,0.476,0.252,0.226,south,12.6,No
2015/05/18,16:50,0.555,0.333,0.589,0.546,0.481,0.255,0.227,south,12.2,No
2015/05/18,17:00,0.549,0.332,0.591,0.550,0.477,0.252,0.226,south,12.1,No
2015/05/18,17:10,0.558,0.331,0.585,0.545,0.478,0.253,0.227,south,14.3,No
2015/05/18,17:20,0.552,0.333,0.592,0.548,0.482,0.254,0.226,south,13.2,No
2015/05/18,17:30,0.551,0.330,0.588,0.548,0.476,0.254,0.227,south,11.5,No
2015/05/18,17:40,0.556,0.333,0.587,0.543,0.484,0.254,0.228,south,12.6,No
2015/05/18,17:50,0.549,0.332,0.592,0.550,0.477,0.254,0.226,south,11.3,No
2015/05/18,18:00,0.557,0.333,0.584,0.544,0.481,0.254,0.228,south,10.4,No
2015/05/18,18:10,0.552,0.334,0.593,0.550,0.479,0.253,0.226,south,10.9,No
2015/05/18,18:20,0.554,0.331,0.588,0.546,0.476,0.253,0.227,south,10.8,No
2015/05/18,18:30,0.557,0.333,0.588,0.547,0.482,0.253,0.225,south-southwest,10.8,No
2015/05/18,18:40,0.549,0.331,0.589,0.550,0.475,0.253,0.227,south-southwest,11.0,No
2015/05/18,18:50,0.556,0.333,0.585,0.546,0.482,0.254,0.226,south-southwest,9.7,No
2015/05/18,19:00,0.552,0.332,0.591,0.551,0.477,0.254,0.226,south,8.2,No
2015/05/18,19:10,0.554,0.333,0.588,0.546,0.479,0.252,0.227,south-southwest,10.0,No
2015/05/18,19:20,0.556,0.333,0.587,0.547,0.478,0.253,0.226,south,10.0,No
2015/05/18,19:30,0.550,0.331,0.591,0.550,0.475,0.252,0.228,south,9.9,No
2015/05/18,19:40,0.557,0.333,0.585,0.544,0.482,0.256,0.226,south,10.2,No
2015/05/18,19:50,0.550,0.330,0.593,0.550,0.475,0.252,0.227,south-southwest,10.4,No
2015/05/18,20:00,0.555,0.335,0.588,0.545,0.480,0.254,0.226,south,9.2,No
2015/05/18,20:10,0.554,0.331,0.588,0.551,0.477,0.255,0.228,south-southwest,8.6,No
2015/05/18,20:20,0.551,0.332,0.592,0.547,0.479,0.252,0.226,south-southwest,8.0,No
2015/05/18,20:30,0.558,0.333,0.585,0.545,0.480,0.254,0.227,south,6.6,Yes
2015/05/18,20:40,0.551,0.331,0.591,0.549,0.475,0.251,0.226,south,10.2,No
2015/05/18,20:50,0.556,0.334,0.586,0.546,0.481,0.254,0.227,south,11.4,No
2015/05/18,21:00,0.552,0.331,0.590,0.551,0.476,0.254,0.227,south,11.2,No
2015/05/18,21:10,0.552,0.332,0.592,0.546,0.480,0.253,0.227,south,8.9,No
2015/05/18,21:20,0.558,0.332,0.586,0.549,0.478,0.255,0.228,south,6.8,No
2015/05/18,21:30,0.551,0.333,0.594,0.551,0.477,0.252,0.227,south,6.9,Yes
2015/05/18,21:40,0.557,0.333,0.587,0.546,0.479,0.255,0.228,south,6.9,No
2015/05/18,21:50,0.552,0.330,0.591,0.551,0.477,0.252,0.227,south-southwest,6.4,Yes
2015/05/18,22:00,0.551,0.333,0.591,0.545,0.483,0.255,0.228,south-southwest,6.0,No
2015/05/18,22:10,0.553,0.330,0.588,0.552,0.474,0.254,0.226,south-southwest,6.0,No
2015/05/18,22:20,0.552,0.335,0.594,0.545,0.481,0.254,0.229,south,5.5,Yes
2015/05/18,22:30,0.557,0.333,0.589,0.548,0.477,0.255,0.227,south,5.5,No
2015/05/18,22:40,0.551,0.333,0.592,0.549,0.480,0.252,0.228,south,6.7,No
2015/05/18,22:50,0.557,0.333,0.590,0.546,0.480,0.256,0.227,south,5.4,Yes
2015/05/18,23:00,0.555,0.335,0.588,0.552,0.477,0.255,0.229,south-southwest,6.7,Yes
2015/05/18,23:10,0.557,0.336,0.594,0.547,0.484,0.258,0.230,south-southwest,7.3,Yes
2015/05/18,23:20,0.557,0.335,0.589,0.557,0.479,0.257,0.231,south-southwest,7.0,Yes
2015/05/18,23:30,0.558,0.340,0.597,0.550,0.485,0.259,0.233,south-southwest,7.0,Yes
2015/05/18,23:40,0.559,0.337,0.592,0.556,0.480,0.261,0.233,south-southwest,7.3,Yes
2015/05/18,23:50,0.558,0.339,0.597,0.553,0.485,0.261,0.234,south,6.9,Yes
